This is the latest recevied weather packets stored in our database for station/object W4DHW-4. If no packets are shown the sender has not sent any weather packets the latest 1 day(s).
| Time | Temp. | Humidity | Pressure | Rain* | Wind** | Luminosity | Snow |
|---|---|---|---|---|---|---|---|
| 1777972394 | 8.33° C | 95% | 1014.3 hPa | 0 mm | 0 m/s | 0 W/m² | - |
| 1777972091 | 8.33° C | 95% | 1014.2 hPa | 0 mm | 0.89 m/s, 324° | 0 W/m² | - |
| 1777971790 | 8.33° C | 95% | 1014.4 hPa | 0 mm | 0.89 m/s, 298° | 0 W/m² | - |
| 1777971486 | 8.33° C | 95% | 1014.3 hPa | 0 mm | 1.34 m/s, 292° | 0 W/m² | - |
| 1777971184 | 8.33° C | 95% | 1014.4 hPa | 0 mm | 0.89 m/s, 313° | 0 W/m² | - |
| 1777970881 | 8.33° C | 95% | 1014.3 hPa | 0 mm | 0.89 m/s, 271° | 0 W/m² | - |
| 1777970581 | 8.33° C | 95% | 1014.3 hPa | 0 mm | 1.34 m/s, 302° | 0 W/m² | - |
| 1777970277 | 8.89° C | 95% | 1014.1 hPa | 0 mm | 0.89 m/s, 301° | 0 W/m² | - |
| 1777969973 | 8.33° C | 95% | 1014.2 hPa | 0 mm | 0.45 m/s, 287° | 0 W/m² | - |
| 1777969670 | 8.33° C | 95% | 1014 hPa | 0 mm | 1.34 m/s, 300° | 0 W/m² | - |
| 1777969367 | 8.33° C | 94% | 1014.1 hPa | 0 mm | 0.45 m/s, 301° | 0 W/m² | - |
| 1777969063 | 8.89° C | 94% | 1014 hPa | 0 mm | 0.89 m/s, 332° | 0 W/m² | - |
| 1777968760 | 8.89° C | 94% | 1014.1 hPa | 0 mm | 0 m/s | 0 W/m² | - |
| 1777968457 | 8.89° C | 94% | 1013.9 hPa | 0 mm | 0 m/s | 0 W/m² | - |
| 1777968152 | 8.89° C | 94% | 1014 hPa | 0 mm | 0 m/s | 0 W/m² | - |
| 1777967849 | 8.89° C | 94% | 1014.2 hPa | 0 mm | 0 m/s | 0 W/m² | - |
| 1777967546 | 8.89° C | 94% | 1014.1 hPa | 0 mm | 0 m/s | 0 W/m² | - |
| 1777967243 | 8.89° C | 94% | 1014.2 hPa | 0 mm | 0 m/s | 0 W/m² | - |
| 1777966940 | 8.89° C | 94% | 1014.1 hPa | 0 mm | 0.45 m/s, 312° | 0 W/m² | - |
| 1777966638 | 8.89° C | 94% | 1013.8 hPa | 0 mm | 0.45 m/s, 276° | 0 W/m² | - |
| 1777966336 | 8.89° C | 94% | 1013.9 hPa | 0 mm | 0.89 m/s, 294° | 0 W/m² | - |
| 1777966031 | 8.89° C | 94% | 1013.6 hPa | 0 mm | 0.89 m/s, 302° | 0 W/m² | - |
| 1777965728 | 9.44° C | 94% | 1013.8 hPa | 0 mm | 1.34 m/s, 297° | 0 W/m² | - |
| 1777965423 | 9.44° C | 94% | 1013.8 hPa | 0 mm | 1.34 m/s, 307° | 0 W/m² | - |
| 1777965121 | 9.44° C | 93% | 1013.6 hPa | 0 mm | 0 m/s | 0 W/m² | - |
* Rain latest hour (hover to see other rain measurements)
** Current wind speed in m/s (hover to see current wind gust speed)